Location: Tafessasset
(32.5899°N, 5.4824°W)
Time: 05:38:58
(UTC+00:00)

Daily predictions for brighter satellites

Satellite Brightness Start Highest point End
(mag) Time Altitude Azimuth Time Altitude Azimuth Time Altitude Azimuth
SL-16 R/B 4.1 04:28:22 20° N 04:28:22 20° N 04:29:59 10° NNE
Lacrosse 4 Rocket 4.2 04:46:05 11° SSE 04:46:05 11° SSE 04:46:19 10° SSE
USA 229 DEB 3.8 04:41:12 51° NNW 04:43:21 87° ENE 04:51:02 10° SSE
USA 229 3.8 04:41:15 51° NNW 04:43:27 86° ENE 04:51:07 10° SSE
Gbstr 26 Del rocket 4.3 04:42:56 62° NNW 04:44:21 84° NE 04:52:26 10° SE
NOSS 3-1 (A) 4.4 04:44:10 18° NNW 04:50:28 67° ENE 04:59:14 10° SE
CZ-3 R/B 4.3 04:41:38 38° W 04:51:14 47° SW 05:02:39 10° SSE
USA 267 3.1 04:47:42 10° SSE 04:54:09 66° SW 04:54:33 64° WSW
Cosmos 1727 Rocket 4.2 04:54:54 10° S 05:01:03 71° E 05:07:12 10° N
Cosmos 1992 Rocket 4.1 04:59:41 33° N 05:02:05 74° ENE 05:07:17 10° SSE
STARLINK-1097 4.2 05:03:42 52° ESE 05:03:42 52° ESE 05:07:16 10° NE
STARLINK-1063 4.4 05:04:56 47° NE 05:05:05 47° NE 05:09:05 10° ESE
STARLINK-1099 3.9 05:08:11 60° ESE 05:08:11 60° ESE 05:11:56 10° NE
Cosmos 1339 Rocket 4.3 05:08:04 52° SW 05:09:08 60° W 05:15:09 10° N
Delta 7925 Rocket 4.0 05:09:34 38° S 05:09:34 38° S 05:13:53 10° ESE
STARLINK-1064 4.2 05:09:41 50° NNE 05:10:03 52° NE 05:14:05 10° ESE
Cosmos 1484 Rocket 3.0 05:06:38 10° NNE 05:10:35 72° ESE 05:11:06 62° SSE
STARLINK-1104 3.7 05:12:36 69° SE 05:12:36 69° SE 05:16:33 10° NE
STARLINK-1041 4.0 05:14:29 53° N 05:15:03 59° NE 05:19:07 10° SE
STARLINK-1144 3.5 05:17:00 77° SSE 05:17:07 78° SE 05:21:08 10° NE
STARLINK-1038 3.8 05:19:15 53° N 05:20:01 66° NE 05:24:07 10° SE
DELTA 2 R/B (1) 3.8 05:17:58 37° SW 05:20:05 64° SSE 05:25:36 10° ENE
STARLINK-1103 3.4 05:21:25 76° SSW 05:21:44 87° SE 05:25:45 10° NE
Cosmos 1500 Rocket 4.4 05:17:55 10° N 05:22:14 51° E 05:26:29 10° SSE
Meteor 1-27 4.0 05:17:08 10° S 05:22:42 80° W 05:28:16 10° N
Cosmos 292 Rocket 3.6 05:22:40 30° NNW 05:25:00 74° WSW 05:29:43 10° S
STARLINK-1046 3.7 05:24:03 50° NNW 05:25:01 74° NE 05:29:08 10° SE
PSLV R/B 3.9 05:21:47 10° NNE 05:25:31 69° E 05:29:19 10° S
Delta 168 4.3 05:25:02 27° SSW 05:26:18 31° S 05:29:51 10° ESE
STARLINK-1101 3.4 05:25:52 68° WSW 05:26:21 84° NW 05:30:23 10° NE
STARLINK-1128 3.3 05:26:06 71° WSW 05:26:27 81° NW 05:30:26 10° NE
Okean O Rocket 3.7 05:24:32 10° NE 05:28:19 28° E 05:32:03 10° SSE
Cosmos 2084 4.1 05:24:33 12° SSW 05:28:35 58° ESE 05:33:01 10° NE
STARLINK-1039 3.6 05:28:51 47° NW 05:29:59 83° NE 05:34:07 10° SE
STARLINK-1113 3.4 05:30:22 61° W 05:30:54 73° NW 05:34:52 10° NE
STARLINK-1102 3.4 05:30:20 59° WSW 05:30:59 75° NW 05:35:01 10° NE
Lacrosse 5 3.6 05:27:02 10° NNW 05:31:27 29° NE 05:35:52 10° ESE
Cosmos 1743 Rocket 3.5 05:29:43 10° N 05:34:04 81° E 05:38:22 10° S
STARLINK-1045 3.5 05:33:36 42° NW 05:34:56 88° SW 05:39:04 10° SE
H-2A R/B 3.4 05:30:53 10° N 05:34:00 33° NW 05:34:00 33° NW
STARLINK-1119 3.4 05:34:35 53° W 05:35:18 65° NW 05:39:16 10° NE
STARLINK-1111 3.4 05:34:53 50° WSW 05:35:43 67° NW 05:39:43 10° NE
STARLINK-1114 3.5 05:38:54 45° W 05:39:47 59° NW 05:43:44 10° NE
STARLINK-1050 3.5 05:38:31 38° NW 05:40:00 76° SW 05:44:07 10° SE
Cosmos 1842 Rocket 4.1 05:40:14 36° WNW 05:40:14 36° WNW 05:44:18 10° NNW
STARLINK-1073 3.5 05:39:21 43° W 05:40:22 60° NW 05:44:22 10° NE
CZ-2C R/B 4.3 05:37:13 10° NNW 05:38:40 16° NW 05:38:40 16° NW
STARLINK-1130 (DARKSAT) 3.6 05:43:06 39° W 05:44:10 53° NW 05:48:05 10° NE
STARLINK-1055 3.5 05:43:17 34° WNW 05:44:57 68° SW 05:49:03 10° SE
STARLINK-1121 3.7 05:43:46 38° W 05:44:58 54° NW 05:48:56 10° NE
Shenzhou-11 Module 3.4 05:46:59 22° N 05:46:59 22° N 05:48:42 10° NE
Cosmos 1459 Rocket 4.4 05:41:54 10° N 05:48:04 68° E 05:54:18 10° SSE
STARLINK-1084 3.8 05:47:22 34° W 05:48:38 48° NW 05:52:30 10° NNE
STARLINK-1106 3.8 05:48:18 33° W 05:49:42 48° NW 05:53:37 10° NNE
STARLINK-1022 3.6 05:48:04 30° WNW 05:49:55 60° SW 05:53:59 10° SSE
Cosmos 1954 Rocket 4.3 05:44:53 10° S 05:50:08 70° ESE 05:55:27 10° NNE
Cosmos 1869 3.3 05:47:04 10° SSW 05:51:01 57° W 05:54:56 10° N
Cosmos 407 Rocket 3.7 05:46:49 10° SW 05:51:58 49° WNW 05:57:07 10° N
METEOR-M 4.1 05:47:10 10° N 05:52:27 66° WNW 05:57:43 10° SSW
STARLINK-1112 3.9 05:52:54 28° W 05:54:30 43° NW 05:58:22 10° NNE
STARLINK-1042 3.8 05:52:50 26° WNW 05:54:51 53° SW 05:58:52 10° SSE
Cosmos 1140 Rocket 3.4 05:50:46 10° SSW 05:55:57 66° WNW 06:01:11 10° N
COSMO-SKYMED 1 2.5 05:52:16 10° S 05:56:35 70° WSW 06:00:55 10° NNW
USA 116 4.2 05:53:57 10° SSE 05:57:10 49° ENE 06:00:14 10° N
STARLINK-1056 3.9 05:57:35 23° WNW 05:59:48 47° SW 06:03:46 10° SSE
ALOS 2.5 05:56:47 10° N 06:01:12 45° WNW 06:05:38 10° SW
Cosmos 921 Rocket 3.6 05:59:23 10° N 06:03:44 61° ENE 06:07:59 10° SSE
Aurora 2 Rocket 3.8 06:00:35 14° WSW 06:03:57 29° S 06:07:14 10° ESE
Cosmos 1943 Rocket 2.1 05:58:33 10° NNW 06:04:00 68° WSW 06:09:27 10° S
STARLINK-1054 4.1 06:02:24 20° WNW 06:04:47 41° SW 06:08:40 10° SSE
Cosmos 1802 Rocket 4.3 05:59:17 10° N 06:05:46 78° E 06:12:08 10° S
Cosmos 2221 3.6 06:03:39 10° SW 06:07:01 23° WNW 06:10:25 10° NNW
STARLINK-1062 4.3 06:07:10 18° WNW 06:09:44 37° SW 06:13:32 10° SSE
STARLINK-1053 4.4 06:11:56 16° WNW 06:14:40 33° SW 06:18:22 10° SSE
Helios 1A Rocket 3.2 06:13:20 10° NNE 06:17:28 75° ESE 06:21:34 10° S
Aureole 2 Rocket 2.0 06:17:15 10° NNW 06:20:21 77° WSW 06:23:35 10° SSE
Milstar 3 4.2 06:08:09 14° W 06:21:17 55° SSW 06:29:26 10° SE
FENGYUN 3A 4.3 06:19:04 10° N 06:23:51 32° WNW 06:28:36 10° SW
BREEZE-M DEB (TANK) 3.7 06:21:56 10° WSW 06:25:22 41° NNW 06:30:27 10° NE
H-2A R/B 2.9 06:22:47 10° NNE 06:26:32 77° E 06:30:13 10° S
GPS 2-05 Rocket1 3.9 06:26:31 10° SW 06:28:34 25° SSE 06:30:37 10° E
Cosmos 2369 Rocket 2.4 06:23:07 10° NNW 06:28:39 53° WSW 06:34:10 10° S
Cosmos 1943 4.1 06:26:21 10° WSW 06:30:56 26° WNW 06:35:34 10° N
Cosmos 676 Rocket 4.4 06:27:19 10° SW 06:32:18 42° WNW 06:37:21 10° N
Cosmos 1862 3.2 06:28:47 10° N 06:32:45 85° W 06:36:42 10° S
Cosmos 2016 Rocket 4.0 06:27:53 10° N 06:34:06 74° W 06:40:24 10° S
Atlas Centaur 2 4.0 06:29:26 10° SW 06:37:32 49° SSE 06:45:16 10° E
Cosmos 2263 4.3 06:35:17 10° NNW 06:40:51 59° WSW 06:46:20 10° S
